Time,TemperatureF,DewpointF,PressureIn,WindDirection,WindDirectionDegrees,WindSpeedMPH,WindSpeedGustMPH,Humidity,HourlyPrecipIn,Conditions,Clouds,dailyrainin,SoftwareType,DateUTC
2018-04-19 00:02:00,65.7,54.8,29.82,East,90,0.0,0.0,68,0.00,,,0.00,VWS V15.00,2018-04-19 04:02:00,
2018-04-19 00:07:00,65.7,55.2,29.82,East,90,0.0,0.0,69,0.00,,,0.00,VWS V15.00,2018-04-19 04:07:00,
2018-04-19 00:12:00,65.5,55.0,29.82,East,90,0.0,0.0,69,0.00,,,0.00,VWS V15.00,2018-04-19 04:12:00,
2018-04-19 00:17:00,65.7,55.2,29.82,East,90,0.0,0.0,69,0.00,,,0.00,VWS V15.00,2018-04-19 04:17:00,
2018-04-19 00:22:00,65.5,55.0,29.82,East,90,0.0,0.0,69,0.00,,,1.14,VWS V15.00,2018-04-19 04:22:00,
2018-04-19 00:27:00,65.3,54.9,29.82,East,90,0.0,0.0,69,0.00,,,1.14,VWS V15.00,2018-04-19 04:27:00,
2018-04-19 00:32:00,65.1,55.1,29.82,East,90,0.0,0.0,70,0.00,,,1.14,VWS V15.00,2018-04-19 04:32:00,
2018-04-19 00:52:00,64.8,55.5,29.82,East,90,0.0,0.0,72,0.00,,,1.14,VWS V15.00,2018-04-19 04:52:00,
2018-04-19 00:57:00,64.4,55.6,29.82,East,90,0.0,0.0,73,0.00,,,1.14,VWS V15.00,2018-04-19 04:57:00,
2018-04-19 01:02:00,64.4,55.6,29.82,East,90,0.0,0.0,73,0.00,,,1.14,VWS V15.00,2018-04-19 05:02:00,
2018-04-19 01:07:00,64.2,55.8,29.82,East,90,0.0,0.0,74,0.00,,,1.14,VWS V15.00,2018-04-19 05:07:00,
2018-04-19 01:12:00,64.0,55.6,29.82,East,90,0.0,0.0,74,0.00,,,1.14,VWS V15.00,2018-04-19 05:12:00,
2018-04-19 01:17:00,64.0,55.6,29.82,East,90,0.0,0.0,74,0.00,,,1.14,VWS V15.00,2018-04-19 05:17:00,
2018-04-19 01:22:00,63.9,55.0,29.79,East,90,0.0,0.0,73,0.00,,,1.14,VWS V15.00,2018-04-19 05:22:00,
2018-04-19 01:27:00,63.9,55.0,29.79,East,90,0.0,0.0,73,0.00,,,1.14,VWS V15.00,2018-04-19 05:27:00,
2018-04-19 01:32:00,63.9,54.7,29.79,East,90,0.0,0.0,72,0.00,,,1.14,VWS V15.00,2018-04-19 05:32:00,
2018-04-19 01:37:00,63.9,54.3,29.79,East,90,0.0,0.0,71,0.00,,,1.14,VWS V15.00,2018-04-19 05:37:00,
2018-04-19 01:42:00,63.5,54.3,29.82,East,90,0.0,0.0,72,0.00,,,1.14,VWS V15.00,2018-04-19 05:42:00,
2018-04-19 01:47:00,63.5,53.9,29.82,East,90,0.0,0.0,71,0.00,,,1.14,VWS V15.00,2018-04-19 05:47:00,
2018-04-19 01:52:00,63.5,53.9,29.82,East,90,0.0,0.0,71,0.00,,,1.14,VWS V15.00,2018-04-19 05:52:00,
2018-04-19 01:57:00,63.5,53.9,29.79,East,90,0.0,0.0,71,0.00,,,1.14,VWS V15.00,2018-04-19 05:57:00,
2018-04-19 02:02:00,63.3,53.4,29.79,East,90,0.0,0.0,70,0.00,,,1.14,VWS V15.00,2018-04-19 06:02:00,
2018-04-19 02:07:00,63.1,53.2,29.76,East,90,0.0,0.0,70,0.00,,,1.14,VWS V15.00,2018-04-19 06:07:00,
2018-04-19 02:12:00,63.0,53.4,29.76,East,90,0.0,0.0,71,0.00,,,1.14,VWS V15.00,2018-04-19 06:12:00,
2018-04-19 02:17:00,62.8,52.9,29.76,East,90,0.0,0.0,70,0.00,,,1.14,VWS V15.00,2018-04-19 06:17:00,
2018-04-19 02:22:00,62.6,52.7,29.76,East,90,0.0,0.0,70,0.00,,,1.14,VWS V15.00,2018-04-19 06:22:00,
2018-04-19 02:27:00,62.6,52.7,29.79,East,90,0.0,0.0,70,0.00,,,1.14,VWS V15.00,2018-04-19 06:27:00,
2018-04-19 02:32:00,62.4,52.5,29.79,East,90,0.0,0.0,70,0.00,,,1.14,VWS V15.00,2018-04-19 06:32:00,
2018-04-19 02:37:00,62.4,52.5,29.79,East,90,0.0,0.0,70,0.00,,,1.14,VWS V15.00,2018-04-19 06:37:00,
2018-04-19 02:42:00,62.4,52.5,29.76,East,90,0.0,0.0,70,0.00,,,1.14,VWS V15.00,2018-04-19 06:42:00,
2018-04-19 02:47:00,62.4,52.5,29.76,East,90,0.0,0.0,70,0.00,,,1.14,VWS V15.00,2018-04-19 06:47:00,
2018-04-19 02:52:00,62.6,52.3,29.76,East,90,0.0,0.0,69,0.00,,,1.14,VWS V15.00,2018-04-19 06:52:00,
2018-04-19 02:57:00,62.6,52.7,29.76,East,90,0.0,0.0,70,0.00,,,1.14,VWS V15.00,2018-04-19 06:57:00,
2018-04-19 03:02:00,62.6,52.7,29.76,East,90,0.0,0.0,70,0.00,,,1.14,VWS V15.00,2018-04-19 07:02:00,
2018-04-19 03:07:00,62.6,52.7,29.76,East,90,0.0,0.0,70,0.00,,,1.14,VWS V15.00,2018-04-19 07:07:00,
2018-04-19 03:12:00,62.6,52.7,29.76,East,90,0.0,0.0,70,0.00,,,1.14,VWS V15.00,2018-04-19 07:12:00,
2018-04-19 03:17:00,62.8,52.9,29.76,East,90,0.0,0.0,70,0.00,,,1.14,VWS V15.00,2018-04-19 07:17:00,
2018-04-19 03:22:00,62.8,52.9,29.76,East,90,0.0,0.0,70,0.00,,,1.14,VWS V15.00,2018-04-19 07:22:00,
2018-04-19 03:27:00,62.8,52.9,29.76,East,90,0.0,0.0,70,0.00,,,1.14,VWS V15.00,2018-04-19 07:27:00,
2018-04-19 03:32:00,63.0,53.4,29.76,East,90,0.0,0.0,71,0.00,,,1.14,VWS V15.00,2018-04-19 07:32:00,
2018-04-19 03:37:00,63.0,53.4,29.76,East,90,0.0,0.0,71,0.00,,,1.14,VWS V15.00,2018-04-19 07:37:00,
2018-04-19 03:42:00,63.0,53.4,29.76,East,90,0.0,0.0,71,0.00,,,1.14,VWS V15.00,2018-04-19 07:42:00,
2018-04-19 03:47:00,63.0,53.4,29.76,East,90,0.0,0.0,71,0.00,,,1.14,VWS V15.00,2018-04-19 07:47:00,
2018-04-19 03:52:00,63.0,53.4,29.76,East,90,0.0,0.0,71,0.00,,,1.14,VWS V15.00,2018-04-19 07:52:00,
2018-04-19 03:57:00,63.0,53.4,29.76,East,90,0.0,0.0,71,0.00,,,1.14,VWS V15.00,2018-04-19 07:57:00,
2018-04-19 04:02:00,63.0,53.4,29.76,East,90,0.0,0.0,71,0.00,,,1.14,VWS V15.00,2018-04-19 08:02:00,
2018-04-19 04:07:00,63.0,53.4,29.76,East,90,0.0,0.0,71,0.00,,,1.14,VWS V15.00,2018-04-19 08:07:00,
2018-04-19 04:12:00,63.0,53.4,29.76,East,90,0.0,0.0,71,0.00,,,1.14,VWS V15.00,2018-04-19 08:12:00,
2018-04-19 04:17:00,63.0,53.4,29.76,East,90,0.0,0.0,71,0.00,,,1.14,VWS V15.00,2018-04-19 08:17:00,
2018-04-19 04:22:00,63.0,53.4,29.74,East,90,0.0,0.0,71,0.00,,,1.14,VWS V15.00,2018-04-19 08:22:00,
2018-04-19 04:27:00,63.0,53.4,29.74,East,90,0.0,0.0,71,0.00,,,1.14,VWS V15.00,2018-04-19 08:27:00,
2018-04-19 04:32:00,63.0,53.4,29.74,East,90,0.0,0.0,71,0.00,,,1.14,VWS V15.00,2018-04-19 08:32:00,
2018-04-19 04:37:00,63.0,53.4,29.74,East,90,0.0,0.0,71,0.00,,,1.14,VWS V15.00,2018-04-19 08:37:00,
2018-04-19 04:42:00,63.0,53.4,29.76,East,90,0.0,0.0,71,0.00,,,1.14,VWS V15.00,2018-04-19 08:42:00,
2018-04-19 04:47:00,63.0,53.4,29.76,East,90,0.0,0.0,71,0.00,,,1.14,VWS V15.00,2018-04-19 08:47:00,
2018-04-19 04:52:00,63.0,53.4,29.76,East,90,0.0,0.0,71,0.00,,,1.14,VWS V15.00,2018-04-19 08:52:00,
2018-04-19 04:57:00,63.0,53.4,29.76,East,90,0.0,0.0,71,0.00,,,1.14,VWS V15.00,2018-04-19 08:57:00,
2018-04-19 05:02:00,60.3,53.4,29.76,East,90,0.0,0.0,78,0.00,,,1.14,VWS V15.00,2018-04-19 09:02:00,
2018-04-19 05:07:00,60.1,53.2,29.76,East,90,0.0,0.0,78,0.00,,,1.14,VWS V15.00,2018-04-19 09:07:00,
2018-04-19 05:12:00,59.9,52.7,29.79,East,90,0.0,0.0,77,0.00,,,1.14,VWS V15.00,2018-04-19 09:12:00,
2018-04-19 05:17:00,59.7,52.9,29.79,East,90,0.0,0.0,78,0.00,,,1.14,VWS V15.00,2018-04-19 09:17:00,
2018-04-19 05:22:00,59.4,52.9,29.79,East,90,0.0,0.0,79,0.00,,,1.14,VWS V15.00,2018-04-19 09:22:00,
2018-04-19 05:27:00,59.4,52.9,29.79,East,90,0.0,0.0,79,0.00,,,1.14,VWS V15.00,2018-04-19 09:27:00,
2018-04-19 05:32:00,59.2,53.0,29.79,East,90,0.0,0.0,80,0.00,,,1.14,VWS V15.00,2018-04-19 09:32:00,
2018-04-19 05:37:00,58.8,53.3,29.76,East,90,0.0,0.0,82,0.00,,,1.14,VWS V15.00,2018-04-19 09:37:00,
2018-04-19 05:42:00,59.0,53.2,29.76,East,90,0.0,0.0,81,0.00,,,1.14,VWS V15.00,2018-04-19 09:42:00,
2018-04-19 05:47:00,58.8,53.3,29.76,East,90,0.0,0.0,82,0.00,,,1.14,VWS V15.00,2018-04-19 09:47:00,
2018-04-19 05:52:00,58.8,53.7,29.79,East,90,0.0,0.0,83,0.00,,,1.14,VWS V15.00,2018-04-19 09:52:00,
2018-04-19 05:57:00,58.5,53.7,29.79,East,90,0.0,0.0,84,0.00,,,1.14,VWS V15.00,2018-04-19 09:57:00,
2018-04-19 06:02:00,58.1,53.6,29.79,East,90,0.0,0.0,85,0.00,,,1.14,VWS V15.00,2018-04-19 10:02:00,
2018-04-19 06:07:00,58.1,53.6,29.79,East,90,0.0,0.0,85,0.00,,,1.14,VWS V15.00,2018-04-19 10:07:00,
2018-04-19 06:12:00,57.7,53.6,29.79,East,90,0.0,0.0,86,0.00,,,1.14,VWS V15.00,2018-04-19 10:12:00,
2018-04-19 06:17:00,57.6,53.7,29.79,East,90,0.0,0.0,87,0.00,,,1.14,VWS V15.00,2018-04-19 10:17:00,
2018-04-19 06:22:00,57.6,53.7,29.79,East,90,0.0,0.0,87,0.00,,,1.14,VWS V15.00,2018-04-19 10:22:00,
2018-04-19 06:27:00,57.2,53.7,29.79,East,90,0.0,0.0,88,0.00,,,1.14,VWS V15.00,2018-04-19 10:27:00,
2018-04-19 06:32:00,57.0,53.8,29.79,East,90,0.0,0.0,89,0.00,,,1.14,VWS V15.00,2018-04-19 10:32:00,
2018-04-19 06:37:00,57.2,53.7,29.79,East,90,0.0,0.0,88,0.00,,,1.14,VWS V15.00,2018-04-19 10:37:00,
2018-04-19 06:42:00,56.8,53.3,29.82,East,90,0.0,0.0,88,0.00,,,1.14,VWS V15.00,2018-04-19 10:42:00,
2018-04-19 06:47:00,56.3,53.1,29.82,East,90,0.0,0.0,89,0.00,,,1.14,VWS V15.00,2018-04-19 10:47:00,
2018-04-19 06:52:00,56.3,52.8,29.82,East,90,0.0,0.0,88,0.00,,,1.14,VWS V15.00,2018-04-19 10:52:00,
2018-04-19 06:57:00,55.8,52.3,29.82,East,90,0.0,0.0,88,0.00,,,1.14,VWS V15.00,2018-04-19 10:57:00,
2018-04-19 07:02:00,54.9,51.1,29.82,East,90,0.0,0.0,87,0.00,,,1.14,VWS V15.00,2018-04-19 11:02:00,
2018-04-19 07:07:00,53.8,50.6,29.85,East,90,0.0,0.0,89,0.00,,,1.14,VWS V15.00,2018-04-19 11:07:00,
2018-04-19 07:12:00,53.4,50.6,29.85,East,90,0.0,0.0,90,0.00,,,1.14,VWS V15.00,2018-04-19 11:12:00,
2018-04-19 07:17:00,53.1,50.5,29.85,East,90,0.0,0.0,91,0.00,,,1.14,VWS V15.00,2018-04-19 11:17:00,
2018-04-19 07:22:00,52.3,50.1,29.85,East,90,0.0,0.0,92,0.00,,,1.14,VWS V15.00,2018-04-19 11:22:00,
2018-04-19 07:27:00,51.8,49.8,29.85,East,90,0.0,0.0,93,0.00,,,1.14,VWS V15.00,2018-04-19 11:27:00,
2018-04-19 07:32:00,51.8,49.8,29.85,East,90,0.0,0.0,93,0.00,,,1.14,VWS V15.00,2018-04-19 11:32:00,
2018-04-19 07:37:00,51.4,49.8,29.85,East,90,0.0,0.0,94,0.00,,,1.14,VWS V15.00,2018-04-19 11:37:00,
2018-04-19 07:42:00,51.1,49.7,29.88,East,90,0.0,0.0,95,0.00,,,1.14,VWS V15.00,2018-04-19 11:42:00,
2018-04-19 07:47:00,50.9,49.2,29.88,East,90,0.0,0.0,94,0.00,,,1.14,VWS V15.00,2018-04-19 11:47:00,
2018-04-19 07:52:00,50.7,49.3,29.88,East,90,0.0,0.0,95,0.00,,,1.14,VWS V15.00,2018-04-19 11:52:00,
2018-04-19 07:57:00,50.7,49.3,29.88,East,90,0.0,0.0,95,0.00,,,1.14,VWS V15.00,2018-04-19 11:57:00,
2018-04-19 08:02:00,49.5,47.8,29.88,East,90,0.0,0.0,94,0.00,,,1.14,VWS V15.00,2018-04-19 12:02:00,
2018-04-19 08:07:00,49.6,47.7,29.88,East,90,0.0,0.0,93,0.00,,,1.14,VWS V15.00,2018-04-19 12:07:00,
2018-04-19 08:11:00,49.5,47.5,29.85,East,90,0.0,0.0,93,0.00,,,1.14,VWS V15.00,2018-04-19 12:11:00,
2018-04-19 08:16:00,49.5,47.5,29.85,East,90,0.0,0.0,93,0.00,,,1.14,VWS V15.00,2018-04-19 12:16:00,
2018-04-19 08:21:00,49.5,47.0,29.85,East,90,0.0,0.0,91,0.00,,,1.14,VWS V15.00,2018-04-19 12:21:00,
2018-04-19 08:26:00,49.3,46.5,29.88,East,90,0.0,0.0,90,0.00,,,1.14,VWS V15.00,2018-04-19 12:26:00,
2018-04-19 08:31:00,49.3,46.5,29.88,East,90,0.0,0.0,90,0.00,,,1.14,VWS V15.00,2018-04-19 12:31:00,
2018-04-19 08:36:00,49.1,45.7,29.88,East,90,0.0,0.0,88,0.00,,,1.14,VWS V15.00,2018-04-19 12:36:00,
2018-04-19 08:41:00,48.7,45.3,29.88,East,90,0.0,0.0,88,0.00,,,1.14,VWS V15.00,2018-04-19 12:41:00,
2018-04-19 08:46:00,48.6,44.9,29.88,East,90,0.0,0.0,87,0.00,,,1.14,VWS V15.00,2018-04-19 12:46:00,
2018-04-19 08:51:00,48.7,45.0,29.88,East,90,0.0,0.0,87,0.00,,,1.14,VWS V15.00,2018-04-19 12:51:00,
2018-04-19 08:56:00,48.0,44.6,29.88,East,90,0.0,0.0,88,0.00,,,1.14,VWS V15.00,2018-04-19 12:56:00,
2018-04-19 09:01:00,48.2,44.2,29.88,East,90,0.0,0.0,86,0.00,,,1.14,VWS V15.00,2018-04-19 13:01:00,
2018-04-19 09:06:00,48.4,44.1,29.88,East,90,0.0,0.0,85,0.00,,,1.14,VWS V15.00,2018-04-19 13:06:00,
2018-04-19 09:11:00,47.7,42.8,29.88,East,90,0.0,0.0,83,0.00,,,1.14,VWS V15.00,2018-04-19 13:11:00,
2018-04-19 09:16:00,47.8,43.2,29.88,East,90,0.0,0.0,84,0.00,,,1.14,VWS V15.00,2018-04-19 13:16:00,
2018-04-19 09:21:00,48.0,43.1,29.88,East,90,0.0,0.0,83,0.00,,,1.14,VWS V15.00,2018-04-19 13:21:00,
2018-04-19 09:26:00,48.2,43.0,29.91,East,90,0.0,0.0,82,0.00,,,1.14,VWS V15.00,2018-04-19 13:26:00,
2018-04-19 09:31:00,48.0,42.8,29.91,East,90,0.0,0.0,82,0.00,,,1.14,VWS V15.00,2018-04-19 13:31:00,
2018-04-19 09:36:00,48.0,41.8,29.91,East,90,0.0,0.0,79,0.00,,,1.14,VWS V15.00,2018-04-19 13:36:00,
2018-04-19 09:41:00,48.4,41.8,29.91,East,90,0.0,0.0,78,0.00,,,1.14,VWS V15.00,2018-04-19 13:41:00,
2018-04-19 09:46:00,48.4,40.8,29.91,East,90,0.0,0.0,75,0.00,,,1.14,VWS V15.00,2018-04-19 13:46:00,
2018-04-19 09:51:00,48.2,40.7,29.91,East,90,0.0,0.0,75,0.00,,,1.14,VWS V15.00,2018-04-19 13:51:00,
2018-04-19 09:56:00,48.9,41.4,29.91,East,90,0.0,0.0,75,0.00,,,1.14,VWS V15.00,2018-04-19 13:56:00,
2018-04-19 10:01:00,48.6,40.3,29.91,East,90,0.0,0.0,73,0.00,,,1.14,VWS V15.00,2018-04-19 14:01:00,
2018-04-19 10:06:00,49.5,41.2,29.91,East,90,0.0,0.0,73,0.00,,,1.14,VWS V15.00,2018-04-19 14:06:00,
2018-04-19 10:11:00,49.3,41.0,29.91,East,90,0.0,0.0,73,0.00,,,1.14,VWS V15.00,2018-04-19 14:11:00,
2018-04-19 10:16:00,49.6,41.0,29.91,East,90,0.0,0.0,72,0.00,,,1.14,VWS V15.00,2018-04-19 14:16:00,
2018-04-19 10:21:00,49.3,40.7,29.91,East,90,0.0,0.0,72,0.00,,,1.14,VWS V15.00,2018-04-19 14:21:00,
2018-04-19 10:26:00,49.1,40.5,29.91,East,90,0.0,0.0,72,0.00,,,1.14,VWS V15.00,2018-04-19 14:26:00,
2018-04-19 10:31:00,48.4,39.8,29.91,East,90,0.0,0.0,72,0.00,,,1.14,VWS V15.00,2018-04-19 14:31:00,
2018-04-19 10:36:00,48.0,39.8,29.91,East,90,0.0,0.0,73,0.00,,,1.14,VWS V15.00,2018-04-19 14:36:00,
2018-04-19 10:41:00,48.0,39.8,29.91,East,90,0.0,0.0,73,0.00,,,1.14,VWS V15.00,2018-04-19 14:41:00,
2018-04-19 10:46:00,47.8,39.6,29.91,East,90,0.0,0.0,73,0.00,,,1.14,VWS V15.00,2018-04-19 14:46:00,
2018-04-19 10:51:00,47.8,39.6,29.91,East,90,0.0,0.0,73,0.00,,,1.14,VWS V15.00,2018-04-19 14:51:00,
2018-04-19 10:56:00,47.7,39.4,29.94,East,90,0.0,0.0,73,0.00,,,1.14,VWS V15.00,2018-04-19 14:56:00,
2018-04-19 11:01:00,47.8,40.3,29.94,East,90,0.0,0.0,75,0.00,,,1.14,VWS V15.00,2018-04-19 15:01:00,
2018-04-19 11:06:00,47.5,40.0,29.94,East,90,0.0,0.0,75,0.00,,,1.14,VWS V15.00,2018-04-19 15:06:00,
2018-04-19 11:11:00,47.1,39.3,29.94,East,90,0.0,0.0,74,0.00,,,1.14,VWS V15.00,2018-04-19 15:11:00,
2018-04-19 11:16:00,46.8,39.6,29.94,East,90,0.0,0.0,76,0.00,,,1.14,VWS V15.00,2018-04-19 15:16:00,
2018-04-19 11:21:00,47.1,40.0,29.94,East,90,0.0,0.0,76,0.00,,,1.14,VWS V15.00,2018-04-19 15:21:00,
2018-04-19 11:26:00,46.9,39.4,29.94,East,90,0.0,0.0,75,0.00,,,1.14,VWS V15.00,2018-04-19 15:26:00,
2018-04-19 11:31:00,46.8,39.3,29.94,East,90,0.0,0.0,75,0.00,,,1.14,VWS V15.00,2018-04-19 15:31:00,
2018-04-19 11:36:00,46.4,38.9,29.94,East,90,0.0,0.0,75,0.00,,,1.14,VWS V15.00,2018-04-19 15:36:00,
2018-04-19 11:41:00,46.0,38.6,29.94,East,90,0.0,0.0,75,0.00,,,1.14,VWS V15.00,2018-04-19 15:41:00,
2018-04-19 11:46:00,45.7,38.6,29.94,East,90,0.0,0.0,76,0.00,,,1.14,VWS V15.00,2018-04-19 15:46:00,
2018-04-19 11:51:00,45.5,38.4,29.94,East,90,0.0,0.0,76,0.00,,,1.14,VWS V15.00,2018-04-19 15:51:00,
2018-04-19 11:56:00,45.9,38.7,29.97,East,90,0.0,0.0,76,0.00,,,1.14,VWS V15.00,2018-04-19 15:56:00,
2018-04-19 12:01:00,45.7,38.2,29.97,East,90,0.0,0.0,75,0.00,,,1.14,VWS V15.00,2018-04-19 16:01:00,
2018-04-19 12:06:00,45.3,37.9,29.97,East,90,0.0,0.0,75,0.00,,,1.14,VWS V15.00,2018-04-19 16:06:00,
2018-04-19 12:11:00,46.0,38.2,29.97,East,90,0.0,0.0,74,0.00,,,1.14,VWS V15.00,2018-04-19 16:11:00,
2018-04-19 12:16:00,45.1,37.7,29.97,East,90,0.0,0.0,75,0.00,,,1.14,VWS V15.00,2018-04-19 16:16:00,
2018-04-19 12:21:00,46.4,38.2,29.97,East,90,0.0,0.0,73,0.00,,,1.14,VWS V15.00,2018-04-19 16:21:00,
2018-04-19 12:26:00,46.6,38.4,30.00,East,90,0.0,0.0,73,0.43,,,1.57,VWS V15.00,2018-04-19 16:26:00,
2018-04-19 12:31:00,46.2,38.1,30.00,East,90,0.0,0.0,73,0.43,,,1.57,VWS V15.00,2018-04-19 16:31:00,
2018-04-19 12:36:00,46.6,38.0,30.00,East,90,0.0,0.0,72,0.43,,,1.57,VWS V15.00,2018-04-19 16:36:00,
2018-04-19 12:41:00,46.2,38.1,30.00,East,90,0.0,0.0,73,0.43,,,1.57,VWS V15.00,2018-04-19 16:41:00,
2018-04-19 12:46:00,45.9,37.4,30.00,East,90,0.0,0.0,72,0.43,,,1.57,VWS V15.00,2018-04-19 16:46:00,
2018-04-19 12:51:00,45.9,37.7,30.00,East,90,0.0,0.0,73,0.43,,,1.57,VWS V15.00,2018-04-19 16:51:00,
2018-04-19 12:56:00,46.8,38.2,30.00,East,90,0.0,0.0,72,0.43,,,1.57,VWS V15.00,2018-04-19 16:56:00,
2018-04-19 13:00:00,46.6,37.7,30.00,East,90,0.0,0.0,71,0.43,,,1.57,VWS V15.00,2018-04-19 17:00:00,
2018-04-19 13:05:00,46.6,38.0,30.00,East,90,0.0,0.0,72,0.43,,,1.57,VWS V15.00,2018-04-19 17:05:00,
2018-04-19 13:10:00,46.8,38.2,30.00,East,90,0.0,0.0,72,0.43,,,1.57,VWS V15.00,2018-04-19 17:10:00,
2018-04-19 13:15:00,47.7,39.1,30.00,East,90,0.0,0.0,72,0.43,,,1.57,VWS V15.00,2018-04-19 17:15:00,
2018-04-19 13:20:00,47.7,39.1,30.00,East,90,0.0,0.0,72,0.43,,,1.57,VWS V15.00,2018-04-19 17:20:00,
2018-04-19 13:26:00,47.8,39.3,30.00,East,90,0.0,0.0,72,0.43,,,1.57,VWS V15.00,2018-04-19 17:26:00,
2018-04-19 13:30:00,48.2,38.9,30.00,East,90,0.0,0.0,70,0.00,,,1.57,VWS V15.00,2018-04-19 17:30:00,
2018-04-19 13:35:00,48.4,38.7,30.00,East,90,0.0,0.0,69,0.00,,,1.57,VWS V15.00,2018-04-19 17:35:00,
2018-04-19 13:45:00,46.9,37.3,30.00,East,90,0.0,0.0,69,0.00,,,1.57,VWS V15.00,2018-04-19 17:45:00,
2018-04-19 13:50:00,47.8,38.2,30.00,East,90,0.0,0.0,69,0.00,,,1.57,VWS V15.00,2018-04-19 17:50:00,
2018-04-19 13:55:00,47.1,37.1,30.03,East,90,0.0,0.0,68,0.00,,,1.57,VWS V15.00,2018-04-19 17:55:00,
2018-04-19 14:00:00,48.2,38.5,30.03,East,90,0.0,0.0,69,0.00,,,1.57,VWS V15.00,2018-04-19 18:00:00,
2018-04-19 14:05:00,47.1,37.1,30.03,East,90,0.0,0.0,68,0.00,,,1.57,VWS V15.00,2018-04-19 18:05:00,
2018-04-19 14:10:00,48.2,38.2,30.03,East,90,0.0,0.0,68,0.00,,,1.57,VWS V15.00,2018-04-19 18:10:00,
2018-04-19 14:15:00,46.8,36.8,30.03,East,90,0.0,0.0,68,0.00,,,1.57,VWS V15.00,2018-04-19 18:15:00,
2018-04-19 14:20:00,49.1,39.4,30.03,East,90,0.0,0.0,69,0.00,,,1.57,VWS V15.00,2018-04-19 18:20:00,
2018-04-19 14:25:00,48.7,38.3,30.06,East,90,0.0,0.0,67,0.00,,,1.57,VWS V15.00,2018-04-19 18:25:00,
2018-04-19 14:30:00,48.7,38.7,30.06,East,90,0.0,0.0,68,0.00,,,1.57,VWS V15.00,2018-04-19 18:30:00,
2018-04-19 14:35:00,46.2,36.3,30.06,East,90,0.0,0.0,68,0.00,,,1.57,VWS V15.00,2018-04-19 18:35:00,
2018-04-19 14:40:00,46.2,36.3,30.06,East,90,0.0,0.0,68,0.00,,,1.57,VWS V15.00,2018-04-19 18:40:00,
2018-04-19 14:45:00,46.2,36.3,30.06,East,90,0.0,0.0,68,0.00,,,1.57,VWS V15.00,2018-04-19 18:45:00,
2018-04-19 14:50:00,48.0,37.6,30.06,East,90,0.0,0.0,67,0.00,,,1.57,VWS V15.00,2018-04-19 18:50:00,
2018-04-19 14:55:00,48.0,37.6,30.06,East,90,0.0,0.0,67,0.00,,,1.57,VWS V15.00,2018-04-19 18:55:00,
2018-04-19 15:00:00,48.0,37.6,30.06,East,90,0.0,0.0,67,0.00,,,1.57,VWS V15.00,2018-04-19 19:00:00,
2018-04-19 15:05:00,48.4,37.6,30.06,East,90,0.0,0.0,66,0.00,,,1.57,VWS V15.00,2018-04-19 19:05:00,
2018-04-19 15:10:00,48.2,37.0,30.06,East,90,0.0,0.0,65,0.00,,,1.57,VWS V15.00,2018-04-19 19:10:00,
2018-04-19 15:15:00,48.4,37.9,30.06,East,90,0.0,0.0,67,0.00,,,1.57,VWS V15.00,2018-04-19 19:15:00,
2018-04-19 15:20:00,47.3,36.2,30.06,East,90,0.0,0.0,65,0.00,,,1.57,VWS V15.00,2018-04-19 19:20:00,
2018-04-19 15:25:00,48.4,37.2,30.06,East,90,0.0,0.0,65,0.00,,,1.57,VWS V15.00,2018-04-19 19:25:00,
2018-04-19 15:30:00,49.1,37.9,30.06,East,90,0.0,0.0,65,0.00,,,1.57,VWS V15.00,2018-04-19 19:30:00,
2018-04-19 15:35:00,49.1,37.9,30.06,East,90,0.0,0.0,65,0.00,,,1.57,VWS V15.00,2018-04-19 19:35:00,
2018-04-19 15:40:00,49.1,37.5,30.06,East,90,0.0,0.0,64,0.00,,,1.57,VWS V15.00,2018-04-19 19:40:00,
2018-04-19 15:45:00,50.4,38.7,30.06,East,90,0.0,0.0,64,0.00,,,1.57,VWS V15.00,2018-04-19 19:45:00,
2018-04-19 15:50:00,50.7,39.0,30.06,East,90,0.0,0.0,64,0.00,,,1.57,VWS V15.00,2018-04-19 19:50:00,
2018-04-19 15:55:00,50.5,38.4,30.06,East,90,0.0,0.0,63,0.00,,,1.57,VWS V15.00,2018-04-19 19:55:00,
2018-04-19 16:00:00,50.0,37.5,30.06,East,90,0.0,0.0,62,0.00,,,1.57,VWS V15.00,2018-04-19 20:00:00,
2018-04-19 16:05:00,51.3,39.1,30.06,East,90,0.0,0.0,63,0.00,,,1.57,VWS V15.00,2018-04-19 20:05:00,
2018-04-19 16:10:00,49.8,37.8,30.06,East,90,0.0,0.0,63,0.00,,,1.57,VWS V15.00,2018-04-19 20:10:00,
2018-04-19 16:15:00,50.0,37.9,30.06,East,90,0.0,0.0,63,0.00,,,1.57,VWS V15.00,2018-04-19 20:15:00,
2018-04-19 16:20:00,50.0,37.9,30.06,East,90,0.0,0.0,63,0.00,,,1.57,VWS V15.00,2018-04-19 20:20:00,
2018-04-19 16:25:00,52.2,39.5,30.06,East,90,0.0,0.0,62,0.00,,,1.57,VWS V15.00,2018-04-19 20:25:00,
2018-04-19 16:30:00,52.3,39.7,30.06,East,90,0.0,0.0,62,0.00,,,1.57,VWS V15.00,2018-04-19 20:30:00,
2018-04-19 16:35:00,52.7,40.1,30.06,East,90,0.0,0.0,62,0.00,,,1.57,VWS V15.00,2018-04-19 20:35:00,
2018-04-19 16:40:00,48.6,36.2,30.06,East,90,0.0,0.0,62,0.00,,,1.57,VWS V15.00,2018-04-19 20:40:00,
2018-04-19 16:45:00,49.5,37.4,30.06,East,90,0.0,0.0,63,0.00,,,1.57,VWS V15.00,2018-04-19 20:45:00,
2018-04-19 16:50:00,49.1,36.7,30.06,East,90,0.0,0.0,62,0.00,,,1.57,VWS V15.00,2018-04-19 20:50:00,
2018-04-19 16:55:00,51.3,38.3,30.06,East,90,0.0,0.0,61,0.00,,,1.57,VWS V15.00,2018-04-19 20:55:00,
2018-04-19 17:00:00,50.5,37.6,30.06,East,90,0.0,0.0,61,0.00,,,1.57,VWS V15.00,2018-04-19 21:00:00,
2018-04-19 17:05:00,52.0,39.0,30.06,East,90,0.0,0.0,61,0.00,,,1.57,VWS V15.00,2018-04-19 21:05:00,
2018-04-19 17:10:00,50.0,37.1,30.06,East,90,0.0,0.0,61,0.00,,,1.57,VWS V15.00,2018-04-19 21:10:00,
2018-04-19 17:15:00,51.6,38.6,30.06,East,90,0.0,0.0,61,0.00,,,1.57,VWS V15.00,2018-04-19 21:15:00,
2018-04-19 17:20:00,51.3,37.9,30.06,East,90,0.0,0.0,60,0.00,,,1.57,VWS V15.00,2018-04-19 21:20:00,
2018-04-19 17:25:00,52.0,39.0,30.06,East,90,0.0,0.0,61,0.00,,,1.57,VWS V15.00,2018-04-19 21:25:00,
2018-04-19 17:30:00,50.9,37.5,30.06,East,90,0.0,0.0,60,0.00,,,1.57,VWS V15.00,2018-04-19 21:30:00,
2018-04-19 17:35:00,51.6,38.6,30.06,East,90,0.0,0.0,61,0.00,,,1.57,VWS V15.00,2018-04-19 21:35:00,
2018-04-19 17:40:00,50.9,38.0,30.09,East,90,0.0,0.0,61,0.00,,,1.57,VWS V15.00,2018-04-19 21:40:00,